Flag for U.S.A. Weather past 2 weeks in Clovis, New Mexico, U.S.A.

Now
76 °F

Sunny.


Feels Like: 78 °F
Forecast: 62 / 76 °F
Wind: 7 mph from East

Location: Cannon Air Force Base / Clovis

Current Time: Jul 31, 2014 at 8:04:49 PM

Latest Report: Jul 31, 2014 at 6:58 PM


Visibility: 10 mi

Pressure: 30.02 "Hg

Humidity: 43%

Dew point: 52 °F

Location of ClovisLocation

Historic Weather in Clovis — Graph

°F

Clovis temperature yesterday

Maximum temperature yesterday: 85 °F (at 2:58 PM)
Minimum temperature yesterday: 64 °F (at 11:58 PM)
Average temperature yesterday: 72 °F

Past Weeks' High & Low Weather Summary

 TemperatureHumidityPressure
High98 °F (Jul 25, 4:58 PM)100% (Jul 17, 7:58 AM)30.32 "Hg (Jul 17, 7:58 AM)
Low59 °F (Jul 31, 5:58 AM)20% (Jul 25, 4:03 PM)29.73 "Hg (Jul 16, 6:58 PM)
Average76 °F63%29.99 "Hg
* Reported Jul 16 6:58 PM — Jul 31 6:58 PM, Clovis, Weather by CustomWeather, © 2014

Note: Actual official high and low records may vary slightly from our data, if they occured in-between our weather recording intervals... More about our weather records

Advertising

Clovis weather history for previous 24 hours

 ConditionsComfort  
Time TempWeatherWind HumidityBarometerVisibility
6:58 PM
Jul 31
76 °FSunny.7 mph43%30.02 "Hg10 mi
5:58 PM79 °FSunny.8 mph39%30.02 "Hg10 mi
4:58 PM80 °FSunny.7 mph38%30.02 "Hg10 mi
3:58 PM79 °FPartly sunny.3 mph38%30.03 "Hg10 mi
2:58 PM78 °FPartly sunny.8 mph38%30.05 "Hg10 mi
1:58 PM77 °FPartly sunny.8 mph38%30.08 "Hg10 mi
12:58 PM76 °FPartly sunny.10 mph40%30.09 "Hg10 mi
11:58 AM72 °FPartly sunny.6 mph45%30.13 "Hg10 mi
10:58 AM71 °FScattered clouds.6 mph52%30.14 "Hg10 mi
9:58 AM67 °FScattered clouds.7 mph69%30.16 "Hg10 mi
8:58 AM66 °FScattered clouds.12 mph78%30.14 "Hg10 mi
7:58 AM63 °FPartly sunny.14 mph87%30.14 "Hg10 mi
6:58 AM61 °FPassing clouds.7 mph83%30.13 "Hg10 mi
5:58 AM59 °FPassing clouds.7 mph94%30.13 "Hg10 mi
4:58 AM62 °FMostly cloudy.7 mph100%30.10 "Hg10 mi
3:58 AM63 °FOvercast.12 mph99%30.09 "Hg10 mi
2:58 AM63 °FMostly cloudy.10 mph100%30.09 "Hg10 mi
1:58 AM63 °FOvercast.14 mph94%30.09 "Hg10 mi
12:58 AM63 °FMostly cloudy.15 mph95%30.10 "Hg10 mi
11:58 PM
Jul 30
64 °FOvercast.15 mph94%30.09 "Hg10 mi
10:58 PM65 °FOvercast.17 mph91%30.11 "Hg10 mi
9:58 PM65 °FMostly cloudy.15 mph88%30.09 "Hg10 mi
8:58 PM67 °FClear.15 mph81%30.05 "Hg10 mi
Weather by CustomWeather, © 2014

See weather overviewHow to use our weather pages